FW5335 Weather Reports


time (UTC)temp
C
wind
direction
speed
KPH
gust
KPH
rain 1hr
cm
rain 24hr
cm
rain mn
cm
humidity
%
barometer
mb
20260509180519 20 23 9.7 17.7 0.00 0.00 0.00 47 1016.5
20260509175518 20 0 8.0 19.3 0.00 0.00 0.00 48 1016.4
20260509174519 20 23 8.0 16.1 0.00 0.00 0.00 49 1016.1
20260509173521 20 68 11.3 20.9 0.00 0.00 0.00 48 1016.2
20260509172518 20 23 9.7 20.9 0.00 0.00 0.00 47 1016.1
20260509171519 20 45 8.0 19.3 0.00 0.00 0.00 47 1016.2
20260509170519 20 0 12.9 25.7 0.00 0.00 0.00 47 1016.6
20260509165519 20 0 11.3 17.7 0.00 0.00 0.00 47 1016.5
20260509165132 20 45 9.7 19.3 0.00 0.00 0.00 47 1016.4
20260509164519 21 23 9.7 24.1 0.00 0.00 0.00 48 1016.4
20260509163518 21 45 8.0 16.1 0.00 0.00 0.00 48 1016.5
20260509162516 20 0 8.0 22.5 0.00 0.00 0.00 47 1016.5
20260509161518 20 45 8.0 17.7 0.00 0.00 0.00 48 1016.6
20260509160518 20 0 9.7 17.7 0.00 0.00 0.00 48 1016.6
20260509155518 20 23 6.4 14.5 0.00 0.00 0.00 50 1016.7
20260509154518 20 45 11.3 22.5 0.00 0.00 0.00 47 1016.8
20260509153519 20 23 8.0 17.7 0.00 0.00 0.00 51 1017.0
20260509152517 20 68 6.4 16.1 0.00 0.00 0.00 51 1017.0
20260509151518 20 68 8.0 17.7 0.00 0.00 0.00 52 1016.9
20260509150544 20 68 6.4 14.5 0.00 0.00 0.00 50 1017.0
20260509145520 20 68 9.7 19.3 0.00 0.00 0.00 50 1017.4
20260509144523 21 338 8.0 19.3 0.00 0.00 0.00 45 1017.3
20260509143538 22 68 11.3 17.7 0.00 0.00 0.00 44 1017.5
20260509142523 23 45 11.3 22.5 0.00 0.00 0.00 45 1017.5
20260509141518 22 0 9.7 19.3 0.00 0.00 0.00 47 1017.5
20260509140518 21 45 9.7 16.1 0.00 0.00 0.00 47 1017.6
20260509135548 20 68 9.7 17.7 0.00 0.00 0.00 50 1017.6
20260509134518 20 45 11.3 22.5 0.00 0.00 0.00 47 1017.5
20260509133523 21 68 12.9 20.9 0.00 0.00 0.00 46 1017.6
20260509132519 22 68 9.7 20.9 0.00 0.00 0.00 49 1017.7
20260509131518 22 45 6.4 16.1 0.00 0.00 0.00 49 1017.5
20260509130519 21 23 9.7 17.7 0.00 0.00 0.00 51 1017.6
20260509125519 20 68 9.7 19.3 0.00 0.00 0.00 51 1017.7
20260509124518 20 68 8.0 17.7 0.00 0.00 0.00 56 1017.8
20260509123518 20 0 8.0 16.1 0.00 0.00 0.00 53 1017.8
20260509122519 21 68 11.3 22.5 0.00 0.00 0.00 53 1017.8
20260509121518 21 68 6.4 12.9 0.00 0.00 0.00 55 1017.9
20260509120518 20 45 8.0 12.9 0.00 0.00 0.00 55 1018.0
20260509115518 20 90 9.7 16.1 0.00 0.00 0.00 55 1018.1
20260509114518 20 68 9.7 19.3 0.00 0.00 0.00 56 1018.3
20260509113518 20 45 9.7 17.7 0.00 0.00 0.00 56 1018.3
20260509112518 20 68 8.0 14.5 0.00 0.00 0.00 56 1018.4
20260509111523 20 68 6.4 14.5 0.00 0.00 0.00 55 1018.5
20260509110544 20 68 8.0 16.1 0.00 0.00 0.00 57 1018.5
20260509105519 20 45 8.0 19.3 0.00 0.00 0.00 56 1018.7
20260509104520 20 45 6.4 16.1 0.00 0.00 0.00 60 1018.7
20260509103520 19 68 8.0 14.5 0.00 0.00 0.00 62 1018.8
20260509102600 18 68 4.8 9.7 0.00 0.00 0.00 62 1019.0
20260509101519 18 68 6.4 11.3 0.00 0.00 0.00 62 1019.0
20260509100546 18 45 8.0 12.9 0.00 0.00 0.00 64 1018.9
20260509095541 18 135 6.4 11.3 0.00 0.00 0.00 61 1018.9
20260509094543 18 45 4.8 12.9 0.00 0.00 0.00 62 1019.1
20260509093543 17 113 4.8 12.9 0.00 0.00 0.00 63 1019.1
20260509092542 17 68 4.8 9.7 0.00 0.00 0.00 65 1018.8
20260509091519 16 68 4.8 9.7 0.00 0.00 0.00 67 1018.9
20260509090523 16 68 3.2 8.0 0.00 0.00 0.00 66 1018.9
20260509085520 15 68 4.8 11.3 0.00 0.00 0.00 68 1018.9
20260509084519 15 68 6.4 9.7 0.00 0.00 0.00 69 1019.0
20260509083625 15 68 3.2 9.7 0.00 0.00 0.00 69 1018.8
20260509082525 14 113 3.2 6.4 0.00 0.00 0.00 69 1018.9
20260509081520 14 90 4.8 9.7 0.00 0.00 0.00 69 1018.9
20260509080519 13 68 4.8 6.4 0.00 0.00 0.00 70 1018.9
20260509075522 13 68 4.8 8.0 0.00 0.00 0.00 72 1018.8
20260509074519 13 90 3.2 6.4 0.00 0.00 0.00 73 1018.7
20260509073519 12 90 1.6 4.8 0.00 0.00 0.00 74 1018.6
20260509072519 12 68 3.2 8.0 0.00 0.00 0.00 75 1018.8
20260509071519 12 68 3.2 6.4 0.00 0.00 0.00 76 1018.7
20260509070521 12 113 3.2 6.4 0.00 0.00 0.00 78 1018.8
20260509065519 11 68 1.6 3.2 0.00 0.00 0.00 80 1018.7
20260509064520 11 0.0 0.0 0.00 0.00 0.00 83 1018.7
20260509063518 10 0.0 0.0 0.00 0.00 0.00 85 1018.4
20260509062519 9 0.0 0.0 0.00 0.00 0.00 86 1018.5
20260509061520 8 0.0 0.0 0.00 0.00 0.00 90 1018.3
20260509060519 8 0.0 0.0 0.00 0.00 0.00 91 1018.3
20260509055519 7 0.0 0.0 0.00 0.00 0.00 92 1018.2
20260509054519 7 0.0 0.0 0.00 0.00 0.00 91 1018.1
20260509053525 6 0.0 0.0 0.00 0.00 0.00 91 1018.4
20260509052519 6 0.0 0.0 0.00 0.00 0.00 91 1018.3
20260509051519 6 0.0 0.0 0.00 0.00 0.00 90 1018.2
20260509050554 6 0.0 0.0 0.00 0.00 0.00 90 1018.0
20260509045520 6 0.0 0.0 0.00 0.00 0.00 89 1017.9
20260509044519 6 0.0 0.0 0.00 0.00 0.00 90 1017.8
20260509043530 6 0.0 0.0 0.00 0.00 0.00 90 1017.9
20260509042519 6 0.0 0.0 0.00 0.00 0.00 90 1017.9
20260509041519 6 0.0 0.0 0.00 0.00 0.00 90 1017.9
20260509040524 6 0.0 0.0 0.00 0.00 0.00 89 1018.1
20260509035520 6 0.0 0.0 0.00 0.00 0.00 89 1018.0
20260509034541 6 0.0 0.0 0.00 0.00 0.00 90 1018.0
20260509033519 6 0.0 0.0 0.00 0.00 0.00 90 1018.1
20260509032520 6 0.0 0.0 0.00 0.00 0.00 89 1018.0
20260509031519 6 0.0 0.0 0.00 0.00 0.00 89 1018.3
20260509030519 6 0.0 0.0 0.00 0.00 0.00 89 1018.3
20260509025518 6 0.0 0.0 0.00 0.00 0.00 89 1018.3
20260509024519 6 0.0 1.6 0.00 0.00 0.00 88 1018.2
20260509023517 6 0.0 3.2 0.00 0.00 0.00 89 1018.2
20260509022517 6 0.0 0.0 0.00 0.00 0.00 88 1018.2
20260509021519 6 0.0 1.6 0.00 0.00 0.00 89 1018.1
20260509020520 6 0.0 1.6 0.00 0.00 0.00 88 1017.6
20260509015539 6 0.0 0.0 0.00 0.00 0.00 88 1017.7
20260509014525 6 0.0 1.6 0.00 0.00 0.00 88 1017.8
20260509013518 7 0.0 1.6 0.00 0.00 0.00 87 1018.0
20260509012519 7 180 3.2 4.8 0.00 0.00 0.00 87 1018.0
20260509011540 7 0.0 0.0 0.00 0.00 0.00 88 1017.9
20260509010519 7 0.0 0.0 0.00 0.00 0.00 88 1017.9
20260509005519 7 0.0 0.0 0.00 0.00 0.00 87 1018.1
20260509004544 7 0.0 0.0 0.00 0.00 0.00 87 1018.0
20260509003525 7 0.0 1.6 0.00 0.00 0.00 87 1018.0
20260509002519 7 0.0 3.2 0.00 0.00 0.00 86 1017.8
20260509001519 7 180 1.6 3.2 0.00 0.00 0.00 85 1018.1
20260509000518 8 180 1.6 4.8 0.00 0.00 0.00 86 1018.1
20260508235539 8 0.0 1.6 0.00 0.00 0.00 86 1018.2
20260508234519 8 0.0 0.0 0.00 0.00 0.00 85 1018.2
20260508233519 8 0.0 0.0 0.00 0.00 0.00 85 1018.2
20260508232519 8 0.0 3.2 0.00 0.00 0.00 85 1018.2
20260508231519 8 0.0 0.0 0.00 0.00 0.00 85 1018.1
20260508230520 8 0.0 0.0 0.00 0.00 0.00 85 1018.0
20260508225519 8 180 1.6 3.2 0.00 0.00 0.00 84 1017.9
20260508224519 8 180 1.6 3.2 0.00 0.00 0.00 84 1018.1
20260508223519 9 180 1.6 3.2 0.00 0.00 0.00 83 1017.9
20260508222519 9 0.0 0.0 0.00 0.00 0.00 83 1018.0
20260508221519 10 0.0 3.2 0.00 0.00 0.00 82 1018.1
20260508220519 10 203 1.6 4.8 0.00 0.00 0.00 82 1018.2
20260508215539 10 0.0 1.6 0.00 0.00 0.00 81 1018.3
20260508214519 10 0.0 0.0 0.00 0.00 0.00 81 1018.2
20260508213530 10 0.0 0.0 0.00 0.00 0.00 80 1018.0
20260508212518 11 203 1.6 4.8 0.00 0.00 0.00 79 1018.1
20260508211518 11 203 1.6 3.2 0.00 0.00 0.00 79 1018.2
20260508210646 11 0.0 1.6 0.00 0.00 0.00 77 1018.2
20260508205519 11 0.0 1.6 0.00 0.00 0.00 76 1018.0
20260508204524 11 203 1.6 3.2 0.00 0.00 0.00 76 1018.0
20260508203522 12 203 1.6 3.2 0.00 0.00 0.00 75 1017.9
20260508202543 12 203 1.6 1.6 0.00 0.00 0.00 74 1017.7
20260508201528 13 203 1.6 3.2 0.00 0.00 0.00 72 1017.7
20260508200518 13 0.0 1.6 0.00 0.00 0.00 71 1017.8
20260508195519 13 180 1.6 4.8 0.00 0.00 0.00 69 1017.6
20260508194519 14 203 1.6 3.2 0.00 0.00 0.00 68 1017.5
20260508193530 15 0.0 3.2 0.00 0.00 0.00 67 1017.4
20260508192518 15 203 1.6 3.2 0.00 0.00 0.00 66 1017.1
20260508191519 15 203 3.2 8.0 0.00 0.00 0.00 65 1016.9
20260508190519 15 180 4.8 8.0 0.00 0.00 0.00 65 1017.1
20260508185518 15 180 1.6 4.8 0.00 0.00 0.00 64 1016.8
20260508184527 16 180 4.8 9.7 0.00 0.00 0.00 64 1016.7
20260508183518 16 180 3.2 8.0 0.00 0.00 0.00 64 1016.8
20260508182519 16 180 6.4 12.9 0.00 0.00 0.00 63 1016.6
20260508181519 17 203 6.4 12.9 0.00 0.00 0.00 61 1016.8